Vertical_Velocity
-1 -2 -3 0 -0 2 4 1 4 4 15 -4 -1 1 0 -5 -5 1 4 -0 -1 1 -0 -0 -0 0 -3 -1 -1 -1 -0 -0 -1 -1 -3 0 1 3
-3 -2 -2 2 -2 0 4 9 17 6 6 -1 -1 2 2 -0 -0 -3 0 2 1 -2 -0 1 0 -1 -1 -2 -2 0 -0 -2 -2 0 2 1 -0 -1
-5 7 -1 6 2 0 4 -1 8 -0 5 -1 -0 3 -0 -1 2 1 -1 -0 1 -0 2 -0 1 -1 -2 -0 0 2 6 1 2 1 -2 -0 0 1
9 9 9 7 1 3 5 1 2 4 3 3 -2 -2 -4 2 0 1 -1 -1 1 1 -1 -2 -2 0 1 -0 -2 -1 -3 -1 -0 2 2 -1 -3 1
3 5 4 0 1 2 5 -1 -1 1 3 2 5 4 2 -1 2 1 -2 -2 -4 -0 0 3 1 1 2 -4 -2 -1 -6 -2 0 0 -2 -2 0 -3
0 0 -2 1 3 1 -1 0 -1 -0 -1 1 0 1 0 1 -2 -1 -2 -1 -1 -1 2 1 -0 -1 1 2 -2 2 -1 2 1 1 -0 -2 -4 -2
-2 -1 1 -0 -2 -1 -1 -2 0 -1 -0 -2 -1 -1 1 -0 -1 -2 -2 -5 -1 -2 -0 -2 -2 2 2 2 -3 2 1 -1 -4 -2 1 -3 2 -0
2 1 4 3 -1 2 2 -1 -1 -3 -2 -3 -4 -2 -1 -0 0 -2 -1 -2 -3 2 -1 -2 2 1 -0 -1 -1 -0 -1 1 -4 -2 -7 -2 -4 -5
0 -3 -3 -1 1 0 1 1 1 0 -1 1 -1 -1 0 0 3 1 -0 -0 -2 -3 -2 1 -0 -3 -2 -0 -2 -1 -1 -3 -0 -2 -0 -2 -0 4
2 4 5 2 0 1 -1 -2 -0 -2 0 0 -0 -0 -0 1 1 2 1 0 -2 -4 -3 1 -0 3 2 2 4 -2 -1 -2 -1 -1 -2 0 -4 -1
2 2 2 1 3 2 -2 0 1 -0 2 1 -0 1 1 2 -1 -2 0 -2 4 5 7 10 5 5 1 -4 -5 -4 -1 -0 -2 -4 -4 -6 -2 -6
-3 -1 -1 -0 0 1 -1 1 -1 -1 2 3 2 -1 -1 -2 -1 6 7 4 8 11 8 -0 1 3 9 -4 -4 -5 -1 -3 -4 -3 -11 -4 -5 -3
1 2 1 0 2 0 1 -2 1 -3 -2 -5 -2 -2 2 9 12 8 7 7 2 -0 -2 -3 -7 -2 2 6 -1 -1 1 1 4 1 -1 -3 -4 -2
0 -0 2 3 1 1 3 3 10 7 2 -0 8 11 5 12 5 0 5 -1 1 -1 -5 -6 -2 1 4 3 -4 4 -3 -5 -1 1 -2 -6 -5 -7
-0 1 5 5 5 3 9 18 16 8 9 2 1 8 0 1 5 2 1 2 -0 -1 -0 -4 -3 -4 -1 2 -2 -0 4 -8 -3 -3 -4 -3 -7 -7
1 -0 -0 -3 2 -1 -6 -5 -0 -1 -4 1 3 1 9 7 5 2 3 -0 -1 1 -0 -3 -0 -1 -4 3 -5 -3 -1 -0 -2 -2 -2 -6 -9 -9
-18 31 3 6 11 10 2 3 -1 2 1 0 4 8 3 2 -2 0 0 -1 2 -0 -0 -1 -2 -2 -5 1 -5 -2 -2 -5 -5 -5 -4 -4 -7 -11
31 9 10 -6 7 2 -5 8 7 2 7 3 3 -0 4 4 0 -1 -2 1 1 1 -1 -1 -4 -6 -7 5 -4 -10 -0 -2 -7 -5 -5 -8 -8 -6
7 4 9 5 10 15 6 4 1 -1 4 5 1 1 -3 1 -0 1 -1 -1 -2 2 -1 -6 -3 -2 -4 -11 8 -11 -0 -7 -6 -5 -7 -6 -4 -4
-0 1 -7 4 8 3 2 2 0 1 0 1 1 2 -1 -1 0 -1 -1 -0 2 -0 -1 1 0 -2 -0 0 -1 -7 -3 -1 -4 -5 -5 -2 -2 -4
-0 1 4 2 -2 -3 -0 4 1 1 1 3 2 2 -1 1 0 -0 -1 -2 -2 0 -1 -1 -2 -1 -3 -6 -3 -0 -7 -4 -5 -4 -3 -2 -2 -4
-1 -2 -1 -2 -3 3 3 2 5 3 2 4 3 0 1 -0 -2 -0 -2 -0 -1 -2 -3 -3 -3 -5 -1 -6 -3 -3 -3 -2 -2 -1 -0 -3 -4 -3
0 1 4 3 2 1 -1 1 3 1 4 4 3 1 -1 -0 -2 -0 1 -1 -2 -2 -3 -5 -4 -4 -2 -2 -5 -1 -4 -2 -2 1 0 -3 -3 -5
Height
5716 5722 5727 5730 5732 5736 5738 5739 5740 5740 5742 5739 5740 5740 5740 5738 5739 5740 5741 5741 5740 5741 5740 5739 5739 5737 5735 5733 5731 5729 5725 5723 5719 5716 5712 5709 5707 5704
5710 5719 5723 5725 5727 5729 5730 5731 5732 5732 5732 5731 5731 5732 5732 5732 5732 5732 5733 5732 5733 5732 5731 5730 5729 5727 5724 5722 5719 5716 5713 5710 5706 5703 5699 5695 5691 5688
5709 5714 5715 5718 5718 5718 5719 5719 5723 5724 5724 5723 5723 5724 5724 5724 5726 5726 5725 5723 5723 5722 5722 5720 5718 5716 5713 5710 5707 5705 5701 5697 5693 5689 5685 5681 5676 5672
5701 5706 5709 5711 5710 5710 5710 5711 5713 5715 5716 5715 5715 5715 5716 5718 5717 5717 5716 5715 5713 5712 5712 5710 5707 5704 5701 5698 5694 5690 5686 5682 5677 5673 5669 5664 5659 5654
5693 5698 5702 5703 5703 5703 5704 5705 5706 5707 5708 5708 5709 5708 5709 5709 5709 5707 5706 5706 5704 5702 5699 5697 5694 5691 5688 5684 5680 5676 5672 5666 5661 5656 5651 5646 5639 5634
5689 5693 5696 5697 5698 5699 5699 5700 5700 5701 5701 5701 5701 5701 5700 5699 5699 5698 5696 5693 5691 5689 5687 5684 5680 5677 5673 5669 5664 5660 5654 5650 5644 5638 5632 5626 5618 5610
5684 5687 5689 5691 5690 5690 5691 5692 5692 5692 5693 5693 5692 5692 5690 5689 5688 5686 5684 5682 5679 5676 5673 5669 5666 5662 5658 5653 5648 5644 5638 5632 5625 5618 5611 5604 5597 5589
5678 5681 5682 5682 5683 5684 5685 5685 5684 5684 5684 5683 5682 5681 5680 5678 5676 5674 5671 5668 5666 5663 5659 5655 5652 5647 5642 5637 5631 5624 5618 5612 5603 5595 5588 5581 5573 5565
5674 5675 5676 5677 5676 5676 5676 5674 5675 5675 5674 5673 5672 5670 5668 5666 5664 5661 5658 5656 5652 5649 5645 5640 5635 5629 5623 5618 5610 5603 5597 5591 5583 5575 5567 5559 5552 5543
5666 5667 5668 5667 5667 5667 5666 5666 5666 5664 5663 5662 5660 5658 5656 5654 5652 5649 5645 5641 5637 5634 5629 5624 5617 5611 5605 5599 5591 5585 5579 5571 5563 5554 5546 5539 5530 5519
5656 5656 5657 5657 5658 5658 5656 5655 5655 5654 5653 5651 5649 5647 5645 5642 5639 5635 5632 5627 5622 5617 5612 5607 5600 5591 5584 5578 5571 5564 5557 5550 5541 5532 5525 5516 5508 5496
5645 5646 5647 5648 5648 5648 5647 5646 5644 5643 5642 5640 5638 5635 5633 5629 5625 5622 5616 5611 5606 5601 5593 5588 5583 5577 5570 5558 5553 5547 5540 5531 5521 5511 5501 5493 5484 5473
5636 5636 5637 5637 5636 5636 5635 5634 5633 5631 5629 5626 5624 5621 5617 5614 5609 5605 5599 5594 5588 5583 5578 5570 5564 5558 5552 5546 5535 5529 5523 5513 5504 5493 5482 5469 5457 5446
5625 5625 5625 5626 5625 5624 5622 5621 5619 5617 5614 5612 5608 5605 5601 5597 5591 5587 5581 5577 5571 5565 5559 5553 5547 5542 5536 5527 5520 5513 5503 5493 5484 5471 5459 5445 5432 5415
5615 5614 5614 5613 5612 5612 5610 5607 5605 5602 5599 5596 5593 5589 5585 5581 5575 5569 5565 5559 5554 5549 5543 5536 5532 5526 5520 5511 5502 5497 5486 5471 5461 5449 5433 5419 5406 5389
5603 5601 5600 5599 5598 5597 5594 5592 5588 5585 5583 5580 5577 5573 5568 5563 5557 5553 5548 5543 5538 5532 5526 5520 5516 5508 5502 5494 5484 5476 5465 5453 5438 5425 5409 5394 5380 5366
5590 5586 5586 5584 5581 5579 5578 5575 5572 5569 5566 5562 5560 5555 5552 5547 5543 5539 5534 5529 5523 5518 5511 5505 5499 5492 5485 5476 5463 5456 5442 5429 5417 5404 5390 5375 5359 5346
5575 5572 5571 5571 5568 5565 5564 5561 5555 5553 5549 5546 5543 5539 5535 5530 5528 5524 5519 5514 5508 5503 5496 5489 5482 5474 5465 5458 5443 5434 5423 5409 5396 5383 5369 5355 5342 5332
5560 5558 5555 5553 5552 5550 5546 5542 5539 5537 5534 5530 5526 5522 5519 5516 5513 5509 5503 5498 5494 5488 5481 5474 5465 5456 5444 5436 5429 5412 5404 5390 5377 5365 5353 5342 5332 5324
5543 5542 5541 5538 5534 5532 5529 5527 5524 5521 5518 5516 5511 5507 5504 5502 5498 5493 5488 5483 5478 5474 5466 5457 5448 5439 5429 5419 5407 5396 5385 5374 5361 5350 5341 5333 5326 5319
5530 5527 5525 5524 5521 5518 5515 5511 5508 5505 5502 5499 5497 5493 5490 5485 5482 5477 5472 5468 5463 5456 5448 5441 5432 5422 5411 5401 5392 5380 5368 5358 5348 5339 5332 5326 5321 5315
5514 5512 5510 5508 5505 5502 5500 5497 5495 5492 5489 5486 5483 5480 5476 5473 5468 5461 5456 5451 5444 5438 5431 5424 5415 5406 5397 5385 5376 5366 5355 5346 5338 5330 5325 5321 5317 5312
5499 5497 5494 5492 5491 5489 5487 5485 5482 5480 5476 5472 5469 5466 5462 5458 5452 5447 5441 5434 5427 5421 5414 5406 5398 5389 5380 5370 5360 5352 5343 5336 5328 5323 5320 5317 5313 5308